Wind_Speed
30 30 30 29 29 28 26 25 25 25 25 24 23 23 23 23 21 19 17 17 16 16 17 17 17 17 16 16 16 15 15 14 14 14 14 14 14 14 14 13 13 13 14 13 13 13 13 13 13
31 31 31 31 30 28 27 26 25 25 25 25 25 25 24 23 22 20 19 18 18 18 19 19 19 18 18 17 17 17 17 16 16 16 16 16 15 15 15 15 15 15 15 15 15 15 15 15 15
32 32 32 32 31 29 28 27 26 26 26 26 25 25 24 23 22 21 20 19 19 20 20 20 20 20 19 19 19 19 19 18 18 18 18 18 18 17 17 17 17 17 16 16 17 17 17 17 17
33 34 34 33 30 29 29 28 27 27 27 26 26 26 25 24 23 22 21 21 21 21 21 21 21 21 21 20 20 20 20 20 20 20 19 19 19 19 19 19 19 19 18 18 19 19 19 19 19
35 35 34 33 30 30 30 30 29 28 28 27 27 27 26 25 24 23 23 23 22 22 22 22 22 22 22 22 22 22 21 21 21 21 21 21 21 21 21 21 21 21 21 20 20 20 20 20 20
36 36 35 32 31 31 32 32 31 30 29 29 28 27 27 26 25 25 25 24 24 24 23 23 23 23 23 23 23 23 23 23 22 22 22 22 22 22 22 22 22 22 22 22 22 22 22 22 21
37 36 35 33 33 33 33 33 32 32 31 31 30 28 27 27 26 26 26 26 25 25 25 24 24 24 24 24 24 24 24 24 24 23 24 24 24 24 24 24 23 23 23 23 23 23 23 24 23
38 38 37 35 34 34 35 34 33 33 32 32 31 29 28 28 28 27 27 27 27 27 27 26 26 25 25 25 25 25 24 24 24 24 24 24 24 24 24 24 24 24 24 24 24 24 24 25 25
39 39 37 36 35 35 36 36 34 34 33 33 32 31 30 30 29 28 28 28 28 28 28 28 27 27 27 26 26 26 25 25 25 25 25 25 24 25 25 25 25 26 26 26 26 26 27 27 27
40 39 36 36 37 37 37 37 36 35 35 34 33 32 32 31 30 29 28 29 29 29 29 29 29 28 28 28 27 27 27 27 27 26 26 26 26 26 26 27 27 27 28 28 29 29 29 29 29
41 39 37 37 38 38 38 38 37 36 35 35 35 33 32 31 30 30 29 29 29 29 29 29 29 29 29 29 29 29 29 29 29 29 29 29 29 29 29 29 29 30 30 30 30 31 31 31 31
41 39 39 39 39 39 38 38 38 37 36 37 36 34 32 31 31 31 30 30 30 30 29 30 30 30 29 29 30 30 30 30 30 30 31 31 31 31 31 31 32 32 32 32 32 32 32 33 33
42 40 40 40 40 40 39 38 38 37 38 37 37 35 33 32 32 31 31 31 30 30 30 30 30 30 30 30 30 30 30 31 31 31 32 32 32 32 33 33 33 33 33 33 33 33 34 34 35
43 42 41 41 41 40 40 39 39 38 38 38 37 36 35 34 33 32 31 31 31 31 31 31 30 30 30 30 30 30 31 31 32 32 33 33 33 33 33 33 34 34 34 34 35 35 35 36 36
43 43 42 41 41 41 41 40 39 39 40 39 38 37 36 35 34 33 32 31 31 31 31 31 31 31 30 30 30 30 31 31 31 32 33 33 33 34 34 34 35 35 35 36 36 37 37 37 38
44 44 43 41 41 42 42 40 39 41 41 40 39 39 37 36 35 34 33 32 32 32 32 32 31 31 31 31 31 31 31 31 32 32 32 33 34 34 35 35 36 36 37 37 38 38 39 39 39
46 45 43 42 41 42 43 41 40 41 41 40 40 39 38 37 36 35 34 33 33 32 32 32 32 32 32 32 32 32 33 33 33 33 33 33 34 35 36 37 37 38 38 39 39 39 40 40 40
45 45 44 43 43 43 44 42 42 42 42 41 41 40 40 39 37 37 36 35 35 34 34 33 34 34 34 34 34 34 34 34 34 34 35 35 36 37 37 38 39 39 40 40 41 41 41 41 42
46 46 45 45 45 45 45 44 43 43 43 42 42 41 40 39 39 38 37 37 36 36 35 35 35 35 35 35 35 35 35 35 36 36 37 37 38 38 39 40 40 41 41 42 42 43 43 43 44
46 46 46 46 46 46 45 45 44 44 44 43 42 41 41 40 39 39 38 37 37 36 36 36 36 37 37 37 37 36 36 37 37 38 38 39 39 40 41 41 42 42 43 43 44 44 44 45 45
47 46 46 46 46 47 47 46 45 44 44 44 43 42 41 40 40 40 39 38 37 37 37 37 37 38 38 38 38 38 38 38 38 38 39 40 41 41 42 42 43 44 44 44 44 45 45 46 47
46 46 46 46 47 48 47 48 46 45 44 44 43 43 42 42 41 41 40 40 39 38 38 39 39 39 39 39 39 39 39 39 39 40 40 41 41 42 42 43 44 44 45 45 45 45 46 48 48
44 44 44 46 47 48 48 49 47 46 45 43 44 44 43 42 42 41 41 40 40 40 39 40 40 40 39 40 40 40 40 40 41 41 41 42 42 43 43 44 44 45 45 46 47 47 48 49 49
44 44 43 44 46 48 47 48 48 46 44 43 43 43 43 42 42 41 41 41 41 40 40 40 40 40 40 40 41 41 41 42 42 43 43 43 44 44 45 45 45 46 46 47 48 48 49 49 50
44 44 44 45 47 48 46 47 47 44 43 42 42 43 43 43 43 42 42 41 41 41 41 41 41 41 41 42 42 42 43 43 44 44 45 45 45 45 46 46 47 47 48 48 49 50 50 50 51
43 44 44 45 46 46 45 47 46 44 42 42 42 42 43 43 43 43 42 42 42 42 42 42 42 42 43 43 43 44 44 45 46 46 46 46 46 46 47 47 48 49 49 50 50 50 51 50 51
42 42 42 44 45 45 46 46 45 43 42 42 41 41 42 43 43 43 43 42 42 42 43 43 43 43 44 44 44 45 45 45 46 46 47 47 48 48 48 49 49 50 50 50 50 50 51 50 51
41 41 41 42 44 45 45 45 45 43 41 41 40 40 40 41 42 42 42 42 42 43 43 43 43 43 44 44 44 44 44 45 45 46 47 48 48 48 49 49 50 50 49 50 50 50 50 50 50
41 41 42 42 44 44 45 44 43 42 42 41 41 40 40 40 40 40 41 41 41 42 42 43 43 43 44 44 44 44 45 45 45 46 46 47 48 49 49 49 50 49 49 49 50 50 50 51 50
42 41 41 41 43 44 43 43 41 41 41 40 40 40 40 40 40 40 40 40 41 41 41 42 42 43 43 44 44 45 45 45 45 46 46 47 47 48 48 48 48 48 48 49 49 49 50 50 51
Wind_Direction
232 232 232 233 233 234 235 234 234 235 235 235 236 236 238 241 242 242 242 241 240 240 242 243 244 245 244 243 243 243 246 247 248 249 248 249 250 251 252 254 255 256 257 259 260 261 263 265 267
232 232 232 232 233 234 234 234 234 235 235 235 235 236 237 239 240 241 241 241 241 241 242 243 244 244 245 244 244 245 247 248 249 249 250 250 252 253 254 255 257 258 259 260 261 263 265 267 268
233 232 232 233 233 234 236 235 235 235 235 234 234 235 236 237 239 239 240 241 241 242 242 243 244 244 245 246 246 248 249 250 251 251 251 252 253 254 255 256 258 258 259 261 262 263 266 267 268
233 233 233 233 233 234 236 235 234 234 234 234 234 235 236 238 239 239 239 239 240 242 243 244 244 244 245 247 247 249 249 250 252 252 253 253 254 256 257 258 259 259 259 261 263 265 266 267 269
233 234 234 234 233 235 235 235 234 234 234 235 235 236 237 238 239 239 239 239 240 242 243 244 244 245 246 247 248 248 250 251 252 253 255 255 255 256 257 258 259 260 261 262 263 265 266 267 269
234 235 235 234 233 235 236 235 235 234 235 235 236 238 239 239 239 239 240 241 242 243 244 244 245 246 247 247 248 249 250 251 252 253 255 256 257 257 258 259 259 260 261 262 263 264 266 267 269
235 235 235 234 233 235 237 237 236 236 235 236 237 238 239 240 239 240 241 242 244 244 244 245 246 247 247 248 248 249 250 251 252 253 253 255 257 258 258 259 260 261 262 262 263 264 266 267 268
236 236 235 234 234 236 237 238 238 238 237 237 237 238 239 239 240 240 241 243 244 245 246 246 247 247 248 248 249 249 250 251 252 252 253 254 256 257 259 259 260 262 263 264 265 266 267 268 269
236 236 236 235 235 236 238 238 238 238 239 238 238 239 239 239 239 240 241 242 244 245 246 247 247 248 249 250 250 250 251 252 252 253 254 255 256 258 259 260 261 263 264 265 266 267 268 269 270
236 237 236 236 236 236 237 238 239 239 239 240 239 239 240 240 239 239 240 242 243 245 246 247 247 249 249 250 251 251 252 252 253 254 255 256 258 259 260 261 263 264 266 267 267 268 269 269 270
236 237 236 236 236 236 237 238 239 239 240 239 239 239 239 240 239 239 240 242 243 245 247 247 248 248 249 250 251 251 252 253 254 255 256 257 259 260 262 263 265 266 267 268 269 269 270 270 270
236 235 236 236 237 237 237 238 238 238 239 239 239 239 238 239 240 240 240 241 243 244 246 247 248 248 249 250 251 252 253 254 255 256 257 258 260 261 263 264 265 267 268 269 270 270 270 271 271
236 235 236 236 237 238 237 237 237 237 238 239 240 239 238 238 240 240 241 241 243 244 246 247 248 249 250 251 253 253 254 255 256 258 259 260 261 262 264 265 266 267 268 269 270 271 271 272 272
236 236 236 236 237 238 238 237 236 236 237 238 239 239 239 238 239 240 240 241 242 243 245 246 248 249 251 252 253 254 255 257 258 259 260 261 262 263 264 265 266 268 269 270 270 271 272 272 273
236 236 236 236 237 237 238 237 236 236 236 237 238 239 239 238 239 240 240 240 241 242 244 245 247 248 250 251 253 255 257 258 260 261 261 262 263 264 265 266 267 268 269 270 271 271 272 273 273
236 236 236 236 237 237 238 237 235 236 237 237 238 238 239 239 239 240 240 241 241 242 243 245 246 248 250 252 254 255 257 259 261 262 262 263 264 265 266 267 268 268 270 271 271 272 273 273 273
235 236 236 236 237 238 238 237 235 237 237 237 238 239 239 239 240 240 241 242 242 242 243 245 247 249 250 252 255 257 258 260 261 263 264 265 266 266 267 268 268 269 270 271 272 273 273 274 274
236 236 236 236 237 238 238 237 235 236 237 237 238 239 239 240 240 241 241 242 243 244 244 245 247 250 252 253 255 257 259 261 263 264 266 267 267 267 268 268 269 270 270 271 272 273 274 275 275
236 236 236 236 236 237 238 237 236 236 237 238 238 239 239 240 240 241 241 242 243 245 246 246 248 250 252 254 256 258 260 262 263 265 266 267 268 268 269 269 270 271 271 272 273 274 274 276 276
236 236 236 236 237 237 237 237 236 237 237 238 238 238 239 239 240 241 242 242 243 245 246 248 249 251 253 256 258 260 261 262 264 265 266 267 268 269 270 270 271 272 272 273 273 274 275 276 277
235 236 236 237 237 238 238 237 236 236 238 238 238 238 239 239 240 241 242 243 244 245 247 248 250 252 255 257 259 260 261 263 264 266 267 268 269 269 270 270 271 272 273 273 274 275 276 277 278
235 236 236 237 237 238 238 239 236 236 237 238 238 239 239 240 241 242 243 244 245 246 247 249 251 253 255 257 259 261 262 263 264 265 267 268 269 270 270 271 272 273 273 273 274 275 277 278 279
235 235 237 238 239 239 238 240 237 237 237 238 239 240 240 240 241 242 243 244 246 247 248 250 253 254 256 258 260 262 263 264 265 266 267 268 269 270 271 272 273 273 274 274 275 277 277 279 281
234 235 236 237 238 239 238 241 239 238 238 238 239 240 240 241 241 242 243 245 246 247 249 251 253 255 257 258 260 262 263 264 265 266 268 269 270 271 272 273 273 274 274 275 277 278 279 280 281
234 234 235 236 237 239 239 241 241 239 239 240 240 241 241 241 242 243 245 246 247 248 250 252 254 256 258 259 261 262 264 265 265 266 268 269 270 271 272 273 273 274 275 276 277 278 279 281 282
235 236 237 239 240 241 240 241 241 241 240 240 241 241 242 242 243 244 245 247 248 249 250 252 254 256 258 260 262 264 265 266 267 268 269 270 271 271 272 273 274 275 276 277 277 279 280 281 282
233 233 236 239 241 242 242 242 242 242 243 242 242 242 242 242 244 245 246 247 248 249 250 252 254 257 259 262 263 264 266 266 267 268 269 270 271 272 273 273 273 274 276 277 277 278 280 282 282
232 233 234 236 239 241 242 243 244 244 245 244 242 242 242 242 243 245 246 247 248 250 252 254 255 258 260 262 263 264 264 265 266 268 269 270 271 271 273 273 273 274 275 276 276 277 279 281 282
231 231 233 236 239 241 243 243 244 245 245 245 244 242 242 242 243 244 246 247 249 251 253 254 256 259 260 261 262 263 264 265 267 269 271 272 272 272 272 273 273 274 274 275 276 277 278 280 282
231 232 234 237 239 240 242 244 243 245 245 245 245 244 243 243 243 244 246 247 250 253 254 256 258 259 260 260 262 263 264 266 267 269 271 272 273 273 273 273 274 274 275 275 277 277 279 281 282
Height
5815 5818 5821 5824 5826 5828 5830 5833 5835 5836 5838 5840 5842 5844 5846 5848 5851 5855 5855 5855 5856 5857 5858 5859 5860 5862 5863 5864 5865 5866 5868 5869 5869 5870 5871 5872 5873 5874 5874 5875 5875 5876 5876 5876 5876 5876 5876 5876 5876
5810 5813 5816 5819 5821 5824 5827 5829 5831 5833 5834 5836 5838 5840 5842 5844 5846 5849 5850 5851 5853 5854 5855 5856 5858 5859 5860 5861 5863 5864 5865 5866 5867 5868 5869 5870 5871 5872 5872 5873 5873 5873 5874 5874 5874 5874 5874 5874 5874
5805 5808 5811 5813 5816 5819 5822 5825 5827 5828 5829 5831 5833 5835 5838 5840 5842 5845 5847 5848 5849 5851 5852 5853 5855 5856 5857 5859 5860 5861 5862 5863 5864 5865 5866 5867 5868 5869 5870 5870 5871 5871 5871 5871 5871 5871 5872 5871 5871
5800 5802 5805 5809 5812 5815 5817 5820 5822 5823 5825 5827 5829 5831 5834 5837 5839 5841 5842 5844 5845 5847 5848 5850 5851 5853 5854 5856 5857 5858 5859 5860 5861 5862 5863 5864 5865 5866 5867 5867 5868 5868 5868 5869 5869 5869 5869 5869 5868
5793 5796 5800 5803 5807 5809 5811 5814 5816 5818 5821 5823 5825 5827 5829 5832 5834 5836 5838 5840 5841 5843 5845 5846 5848 5849 5850 5852 5853 5855 5856 5857 5858 5859 5860 5861 5862 5862 5863 5864 5864 5865 5865 5865 5865 5865 5865 5865 5865
5787 5790 5794 5798 5801 5803 5805 5808 5811 5813 5816 5818 5820 5823 5825 5827 5830 5832 5834 5835 5837 5839 5841 5842 5844 5845 5847 5848 5849 5851 5852 5853 5854 5855 5856 5857 5858 5859 5859 5860 5860 5861 5861 5861 5861 5861 5862 5861 5861
5781 5784 5788 5792 5795 5797 5800 5802 5805 5808 5810 5813 5815 5818 5820 5822 5825 5827 5829 5831 5833 5834 5836 5838 5839 5841 5842 5844 5845 5847 5848 5849 5850 5851 5852 5853 5854 5855 5855 5856 5856 5856 5857 5857 5857 5857 5857 5857 5857
5773 5778 5781 5785 5788 5791 5793 5796 5799 5802 5804 5807 5810 5813 5815 5817 5820 5822 5824 5826 5828 5829 5831 5833 5835 5837 5838 5839 5841 5842 5843 5845 5846 5847 5848 5849 5849 5850 5851 5851 5852 5852 5852 5852 5853 5853 5853 5853 5853
5766 5771 5774 5778 5782 5784 5786 5789 5793 5795 5798 5801 5804 5807 5809 5812 5814 5817 5819 5821 5822 5824 5826 5828 5830 5832 5833 5835 5836 5837 5839 5840 5841 5842 5843 5844 5845 5845 5846 5846 5847 5847 5848 5848 5848 5848 5848 5848 5848
5758 5762 5768 5771 5774 5777 5779 5782 5786 5789 5792 5795 5798 5801 5803 5806 5809 5811 5813 5815 5817 5819 5820 5823 5825 5826 5828 5830 5831 5832 5834 5835 5836 5837 5838 5839 5840 5840 5841 5841 5842 5842 5843 5843 5843 5843 5843 5843 5842
5750 5756 5760 5763 5766 5769 5772 5775 5779 5782 5785 5788 5791 5794 5796 5799 5802 5805 5807 5809 5811 5813 5815 5817 5819 5821 5823 5824 5825 5827 5828 5829 5831 5832 5833 5834 5834 5835 5836 5836 5836 5837 5837 5837 5837 5837 5837 5837 5836
5743 5748 5751 5755 5758 5761 5765 5768 5771 5775 5778 5781 5784 5787 5790 5793 5796 5798 5801 5803 5805 5807 5809 5811 5813 5815 5817 5818 5820 5821 5822 5823 5825 5826 5827 5828 5828 5829 5829 5830 5830 5831 5831 5831 5831 5831 5831 5830 5830
5735 5739 5743 5746 5749 5753 5756 5760 5764 5767 5770 5773 5776 5780 5784 5787 5789 5792 5794 5796 5799 5801 5803 5805 5807 5809 5811 5812 5813 5815 5816 5817 5818 5819 5820 5821 5822 5823 5823 5823 5824 5824 5824 5824 5824 5824 5824 5823 5823
5726 5730 5734 5738 5741 5744 5748 5752 5756 5760 5762 5765 5769 5773 5776 5779 5782 5785 5787 5790 5792 5795 5796 5798 5800 5802 5804 5806 5807 5809 5810 5811 5812 5813 5813 5814 5815 5816 5816 5817 5817 5817 5817 5817 5817 5817 5816 5816 5815
5717 5721 5725 5729 5733 5736 5739 5744 5749 5752 5754 5758 5761 5765 5768 5772 5775 5778 5780 5783 5785 5788 5790 5792 5794 5796 5797 5799 5801 5802 5803 5804 5805 5806 5806 5807 5808 5808 5809 5809 5809 5810 5810 5809 5809 5809 5808 5808 5807
5706 5711 5716 5721 5724 5727 5731 5737 5741 5742 5746 5750 5754 5757 5761 5764 5767 5770 5773 5776 5778 5781 5783 5785 5787 5789 5790 5792 5793 5795 5796 5797 5798 5798 5799 5800 5800 5801 5801 5801 5802 5802 5802 5801 5801 5800 5800 5799 5799
5696 5701 5707 5712 5715 5718 5722 5728 5732 5734 5737 5742 5746 5749 5752 5756 5760 5763 5765 5768 5771 5773 5776 5778 5780 5781 5783 5785 5786 5787 5789 5790 5791 5791 5792 5792 5793 5793 5793 5793 5793 5793 5793 5793 5792 5792 5791 5790 5790
5688 5693 5697 5702 5705 5709 5712 5718 5723 5725 5729 5733 5737 5741 5744 5748 5752 5755 5758 5760 5763 5766 5768 5770 5772 5774 5776 5777 5779 5780 5781 5782 5783 5783 5784 5784 5785 5785 5785 5785 5784 5784 5784 5784 5783 5782 5782 5781 5780
5677 5682 5687 5692 5695 5699 5703 5708 5713 5716 5720 5725 5728 5732 5736 5740 5743 5746 5749 5752 5755 5758 5760 5763 5764 5766 5768 5769 5771 5772 5773 5774 5775 5775 5775 5776 5776 5776 5776 5776 5775 5775 5775 5774 5774 5773 5772 5771 5770
5666 5671 5676 5681 5685 5688 5693 5698 5703 5707 5711 5715 5719 5723 5727 5731 5734 5738 5741 5744 5747 5750 5752 5754 5756 5758 5759 5761 5762 5763 5764 5765 5766 5766 5767 5767 5767 5766 5766 5766 5766 5765 5765 5764 5763 5762 5762 5760 5759
5656 5661 5666 5671 5674 5677 5682 5688 5693 5698 5701 5706 5710 5714 5718 5722 5725 5729 5732 5735 5738 5741 5743 5745 5747 5749 5750 5752 5753 5754 5755 5756 5757 5757 5757 5757 5757 5756 5756 5756 5755 5755 5754 5753 5753 5752 5751 5750 5748
5646 5652 5656 5659 5663 5667 5672 5676 5684 5688 5692 5696 5701 5705 5709 5713 5716 5720 5723 5726 5729 5732 5734 5736 5738 5739 5741 5742 5743 5744 5746 5747 5747 5747 5747 5747 5746 5746 5746 5745 5744 5744 5743 5742 5742 5740 5740 5738 5736
5637 5641 5645 5648 5651 5656 5661 5664 5673 5677 5682 5687 5691 5695 5699 5703 5707 5710 5714 5717 5719 5722 5724 5726 5728 5730 5731 5733 5734 5735 5735 5736 5736 5737 5737 5736 5736 5735 5735 5734 5733 5733 5732 5731 5730 5729 5728 5726 5724
5627 5631 5634 5637 5639 5644 5651 5654 5660 5667 5673 5677 5681 5685 5689 5693 5697 5700 5703 5706 5709 5712 5714 5716 5718 5720 5721 5722 5723 5724 5725 5725 5726 5726 5726 5725 5725 5724 5724 5723 5722 5721 5720 5719 5718 5717 5716 5714 5711
5616 5621 5624 5626 5628 5635 5641 5643 5650 5657 5662 5667 5671 5675 5679 5683 5687 5690 5693 5696 5699 5702 5704 5706 5708 5709 5711 5712 5713 5713 5713 5714 5714 5714 5714 5714 5713 5712 5712 5711 5710 5710 5709 5708 5706 5705 5703 5701 5699
5607 5611 5616 5618 5622 5627 5630 5633 5641 5647 5651 5656 5660 5664 5668 5672 5676 5679 5682 5685 5688 5691 5693 5695 5697 5699 5700 5701 5701 5701 5701 5701 5701 5701 5701 5701 5701 5700 5700 5699 5698 5697 5696 5695 5694 5692 5690 5688 5686
5596 5601 5606 5609 5612 5616 5619 5625 5631 5636 5640 5645 5650 5654 5658 5661 5665 5668 5671 5674 5677 5680 5682 5684 5686 5688 5688 5689 5689 5689 5689 5689 5688 5688 5688 5688 5688 5688 5687 5686 5686 5685 5684 5682 5681 5680 5678 5675 5673
5587 5592 5596 5599 5602 5605 5610 5615 5621 5627 5631 5635 5639 5643 5647 5650 5654 5657 5660 5663 5666 5669 5671 5673 5675 5676 5677 5677 5677 5677 5677 5677 5676 5676 5675 5675 5674 5674 5674 5673 5672 5672 5671 5669 5669 5668 5666 5663 5661
5578 5582 5585 5589 5592 5597 5600 5608 5612 5617 5621 5625 5629 5633 5637 5640 5643 5647 5650 5653 5655 5658 5660 5662 5664 5665 5665 5665 5665 5665 5665 5665 5665 5664 5663 5662 5661 5661 5660 5660 5659 5659 5658 5657 5656 5655 5653 5651 5648
5567 5572 5577 5581 5584 5588 5592 5600 5603 5607 5610 5614 5618 5622 5626 5630 5633 5636 5640 5642 5645 5647 5649 5651 5652 5653 5654 5654 5654 5654 5654 5653 5653 5653 5651 5650 5649 5649 5648 5647 5647 5646 5646 5645 5643 5642 5640 5638 5636